Wind_Speed
71 70 70 71 71 71 71 71 72 71 71 70 70 69 69 68 68 68 68 68 68 68 68 68 68 68 68 68 68 68 69 70 70 71 72 73 74 75 75 76 77 77 77 77 77 76 75 75 75 75 76 76 76 76 76 77 78 78 77 75 73 71 69 67 64 64 66 64 60 59 58 55 53 53 53 54 55 54 52 50 48 47 47 47 46
73 72 72 72 73 73 73 73 74 74 73 73 73 72 72 72 71 71 71 71 71 71 71 70 70 70 70 70 70 70 70 71 71 72 73 74 75 76 76 77 77 78 79 79 79 79 78 77 77 77 77 76 77 78 78 78 79 79 79 78 77 75 74 72 70 68 69 69 65 63 62 59 58 57 55 56 57 57 55 52 50 50 50 50 50
74 73 73 73 74 74 74 74 74 75 75 75 75 74 74 74 74 74 74 74 73 73 73 72 72 72 72 72 72 72 72 72 73 73 74 75 76 77 77 78 78 79 80 81 81 81 80 80 79 79 79 78 78 78 79 79 80 80 81 81 80 79 78 77 75 73 73 74 71 67 65 64 62 61 59 58 59 60 59 56 53 53 54 53 53
75 74 74 74 75 75 75 75 75 75 75 75 75 75 75 76 76 76 76 76 75 75 74 74 75 75 75 75 75 74 74 74 74 75 75 76 77 78 78 78 78 79 80 81 82 82 82 82 82 82 81 80 80 80 80 81 81 81 81 82 82 82 81 80 79 77 76 77 75 71 69 67 66 64 63 61 61 62 63 62 58 55 55 55 55
76 76 76 76 76 76 76 76 76 75 75 75 74 74 75 76 76 77 77 77 77 76 76 76 76 77 77 78 78 77 77 76 76 77 77 78 78 78 79 79 79 79 80 81 82 82 83 83 84 84 83 82 82 82 82 82 82 82 82 83 83 83 83 83 82 81 80 80 79 75 72 71 69 67 66 66 66 65 64 66 64 59 56 57 57
80 79 79 79 79 79 79 79 78 77 77 76 75 75 75 76 76 76 77 77 77 77 77 77 78 78 79 79 79 79 79 79 79 79 80 80 80 80 80 80 79 79 80 81 82 83 83 84 85 86 86 85 84 84 85 85 84 83 83 84 84 84 84 84 83 83 83 82 82 79 76 74 73 71 70 70 70 68 66 67 67 63 59 59 60
83 83 83 83 83 83 83 82 82 81 80 79 78 78 78 77 77 77 76 76 76 77 77 78 79 80 80 80 80 80 80 81 82 82 82 82 81 81 81 81 81 80 80 81 82 83 83 84 85 86 87 87 86 86 86 86 86 85 85 85 86 85 85 85 84 83 83 83 83 83 80 78 76 74 73 73 72 70 68 68 69 68 64 63 64
85 85 86 86 87 87 87 86 86 85 84 83 82 82 81 80 79 78 77 76 76 76 77 78 79 80 81 81 81 81 81 82 82 83 83 83 83 82 82 82 82 82 82 82 82 82 83 84 85 86 87 87 87 87 87 87 87 87 87 87 87 87 87 87 86 85 84 83 83 83 83 82 78 76 76 76 75 75 75 74 73 72 69 68 67
86 86 87 87 89 90 90 90 90 89 88 87 86 85 84 83 82 81 79 78 78 78 78 79 80 80 81 81 81 82 82 82 83 84 84 84 84 83 82 82 82 83 83 84 83 83 83 84 85 86 87 87 88 88 88 88 88 87 88 89 89 89 88 88 88 87 86 85 84 84 84 83 81 78 77 77 79 80 80 78 76 75 73 71 68
87 87 88 88 89 91 92 93 93 92 91 90 90 89 88 87 86 84 82 81 81 81 81 81 81 81 81 81 81 81 82 82 83 84 84 84 84 83 83 83 83 83 83 84 85 85 85 84 85 86 87 87 88 88 89 89 88 88 89 90 90 90 89 89 88 88 87 87 87 86 85 84 83 82 79 78 80 82 81 79 77 75 74 71 69
87 86 87 88 89 91 92 93 94 94 93 93 92 92 91 90 89 88 86 85 85 84 84 84 84 83 83 82 82 82 82 83 83 83 84 84 84 84 84 84 83 83 83 84 85 86 86 86 86 86 86 87 88 88 89 89 89 89 89 89 90 90 90 89 88 88 88 88 88 89 87 86 85 85 82 79 79 81 82 81 78 76 74 72 70
82 85 85 86 86 88 90 92 93 93 94 94 94 94 93 92 91 90 89 89 89 88 88 88 87 86 85 85 84 84 84 84 84 84 84 84 83 83 83 84 84 83 84 84 84 86 87 87 87 87 87 87 88 88 88 89 89 89 89 89 89 90 90 89 89 89 88 87 88 88 87 87 87 87 84 82 81 81 83 83 81 79 77 75 72
76 84 86 87 86 86 87 88 89 90 91 93 94 94 94 93 92 92 92 92 92 91 91 90 89 89 88 87 87 87 87 87 87 86 86 85 84 83 83 83 83 83 84 84 85 85 86 87 88 88 89 89 88 88 88 89 89 88 88 88 89 89 89 89 89 89 89 87 86 86 87 87 88 88 87 85 85 83 82 83 84 83 80 78 76
74 81 86 89 89 87 85 85 85 85 87 89 90 91 92 92 92 93 93 94 94 94 93 92 91 90 89 89 89 89 90 90 90 89 88 87 86 85 84 83 84 84 85 85 85 85 86 86 87 88 90 90 90 90 89 90 90 89 88 87 87 88 88 88 88 88 89 88 86 86 87 87 87 88 88 87 87 86 84 84 85 85 84 82 80
76 82 88 90 90 88 86 84 83 82 82 83 85 86 86 87 88 89 91 93 94 95 95 94 92 91 91 91 90 90 91 91 91 91 90 89 88 87 86 86 86 86 86 86 86 85 86 86 86 87 89 90 91 92 91 91 91 90 89 87 87 87 87 86 87 87 88 88 87 87 88 88 86 86 87 86 86 87 86 85 85 85 85 84 81
76 83 87 88 87 86 87 86 83 79 76 76 76 76 77 79 81 83 86 88 90 91 92 92 92 92 92 92 92 92 92 92 92 91 90 90 89 89 88 88 88 88 88 88 88 87 87 86 86 87 88 89 91 93 93 93 92 92 91 89 88 87 85 85 85 86 87 87 87 87 88 88 86 85 86 86 85 85 86 86 85 85 85 85 82
74 79 83 85 85 85 87 87 82 75 70 68 67 67 68 71 74 76 79 81 83 85 86 87 88 89 90 92 92 92 93 93 92 91 90 90 89 88 88 88 88 89 89 90 90 89 89 88 88 87 88 89 91 93 94 94 93 93 93 92 90 88 86 85 85 85 85 86 86 87 87 88 87 85 86 86 86 85 84 84 84 85 85 84 83
74 78 81 81 82 84 86 84 78 72 67 64 62 60 60 63 66 70 73 74 76 77 79 80 82 84 85 87 88 89 89 90 91 90 90 90 89 88 88 88 88 89 89 90 91 91 91 91 90 89 89 91 92 93 94 95 94 94 94 93 92 89 87 88 87 86 85 86 86 86 86 86 86 86 86 87 87 85 83 83 84 84 84 84 85
74 76 76 77 79 83 83 80 75 70 65 62 59 56 55 57 61 65 66 67 68 70 72 74 76 79 81 82 82 82 82 83 84 84 84 85 86 86 86 86 87 88 89 90 91 91 91 92 92 92 92 92 94 95 95 95 94 94 94 93 92 90 91 91 90 87 86 85 85 85 85 86 86 86 86 87 87 86 85 85 84 83 84 85 86
69 69 70 74 78 81 80 76 73 68 64 61 58 56 55 57 59 60 60 60 61 62 64 67 71 75 77 76 76 75 75 76 76 77 77 78 80 81 81 82 83 85 87 88 89 90 91 92 93 94 94 94 95 96 96 96 95 94 94 92 90 91 94 94 92 89 87 85 85 85 85 86 86 86 86 86 85 85 86 86 84 84 85 86 86
64 67 70 75 78 78 75 72 69 66 63 61 59 57 57 57 56 55 54 53 54 56 59 64 68 70 71 71 70 70 70 70 71 72 73 74 75 75 75 76 78 79 80 82 84 86 88 91 93 95 95 95 95 96 96 96 96 95 94 91 90 92 94 95 93 92 89 86 85 85 85 85 85 85 85 85 85 85 86 85 84 84 85 85 86
66 70 73 75 75 73 70 68 66 64 62 61 59 58 57 54 52 50 49 49 50 53 58 62 63 64 65 65 65 65 66 67 67 68 69 69 69 69 69 70 71 72 72 74 77 80 83 87 90 93 94 94 94 95 95 95 96 95 94 93 92 92 93 93 94 93 91 88 86 85 84 85 85 84 84 85 84 84 85 84 84 84 84 85 86
69 71 72 71 70 68 66 64 63 61 60 58 57 56 54 51 49 47 47 47 49 53 56 58 57 57 58 59 60 61 62 63 63 63 63 63 64 65 65 65 65 65 65 67 71 74 77 81 85 88 91 91 92 93 94 94 94 95 95 95 93 92 91 92 93 94 93 90 87 85 84 85 85 85 85 84 84 84 83 83 83 83 84 85 86
68 68 68 66 65 63 62 60 59 58 56 55 54 53 51 48 46 45 45 47 49 51 52 51 50 50 51 53 55 57 58 58 59 58 58 59 61 62 61 60 60 59 59 62 65 69 71 74 77 81 84 86 88 90 92 92 93 94 95 96 95 92 91 91 92 94 94 92 88 85 85 86 86 86 85 84 84 84 84 82 82 82 82 84 84
65 64 63 61 60 59 58 57 55 53 52 51 51 50 47 44 43 43 45 45 46 46 45 44 44 45 47 50 52 54 55 55 54 54 55 56 58 59 58 56 56 55 56 58 61 62 64 66 68 71 75 78 81 84 86 89 92 94 95 95 95 93 91 91 93 94 94 92 89 87 86 87 87 87 86 85 86 86 84 83 82 82 82 83 83
63 62 60 58 58 57 55 53 51 50 50 49 47 45 41 40 40 42 43 42 41 40 40 40 41 43 45 47 49 51 52 52 50 50 51 53 54 54 53 52 52 52 53 55 56 57 59 60 62 63 66 68 71 74 78 82 87 90 93 94 93 93 92 92 93 94 94 93 91 89 89 88 88 88 88 87 87 87 86 84 83 82 82 83 83
62 62 60 58 56 55 52 50 49 49 48 46 43 41 38 38 40 41 40 38 37 37 37 39 40 42 43 45 46 47 48 48 46 46 47 47 47 47 47 47 48 48 49 50 51 53 55 56 57 58 59 60 62 65 68 73 77 82 86 89 90 92 93 93 93 94 94 94 93 92 91 91 91 91 90 88 88 88 88 86 83 83 83 83 83
61 60 58 57 55 53 51 50 50 48 45 42 40 39 38 38 39 38 36 34 34 35 36 38 39 39 41 42 42 43 43 43 41 41 41 41 40 41 41 41 42 43 44 45 46 49 50 51 52 53 54 55 57 58 61 64 67 71 75 79 83 87 90 92 93 94 95 95 94 94 94 94 94 93 91 90 90 90 89 87 85 84 84 85 84
60 58 57 56 54 53 52 51 48 45 42 40 39 38 38 38 37 35 32 31 32 33 35 36 37 37 38 38 38 38 39 38 36 36 36 35 35 36 36 37 38 38 39 39 41 43 45 46 46 47 49 50 51 53 55 57 59 61 64 68 72 76 81 85 88 91 93 94 95 95 95 96 96 95 94 93 93 92 90 89 87 86 85 85 85
58 56 55 55 54 53 51 48 45 43 41 40 39 39 38 37 34 32 29 29 30 32 34 35 35 35 35 35 34 35 35 34 32 31 32 32 32 32 33 33 33 34 34 35 37 39 39 40 41 42 43 44 45 47 48 50 51 54 56 58 62 65 69 74 78 83 87 90 92 94 95 96 97 96 95 95 94 92 90 89 88 86 85 85 85
56 55 54 54 53 51 48 46 44 42 40 39 39 39 37 34 32 29 27 28 30 31 33 33 33 32 31 31 31 31 31 31 30 28 28 29 29 30 30 30 30 31 31 31 33 35 35 36 37 37 38 39 40 41 42 43 45 46 48 51 54 57 60 64 68 73 77 81 85 88 91 94 95 96 96 95 94 92 90 89 88 87 86 86 85
55 54 54 52 50 48 46 45 43 40 38 38 38 37 34 31 29 28 27 27 28 30 31 31 30 28 28 29 29 28 28 28 28 27 26 27 28 28 29 28 28 29 29 30 31 32 33 34 34 35 35 35 36 36 37 38 39 40 41 44 47 50 53 56 60 64 68 73 77 81 84 88 90 92 92 92 91 90 89 88 88 87 86 86 85
55 53 51 49 48 46 45 43 40 37 36 36 36 34 31 27 26 27 28 27 27 28 28 28 27 26 26 26 27 27 26 26 26 26 25 25 27 28 28 28 28 28 28 28 29 30 31 32 33 32 32 33 33 33 33 34 34 35 36 38 41 43 46 49 52 56 60 64 68 72 76 80 83 85 86 86 86 86 86 86 86 86 85 85 84
54 51 49 47 46 45 42 39 36 35 35 35 32 30 28 25 25 27 27 27 26 26 25 25 25 25 24 24 25 25 25 24 25 25 24 25 25 26 27 28 27 27 26 27 27 28 29 30 31 30 30 31 31 31 31 32 32 32 33 34 36 38 41 44 46 49 52 56 59 62 66 70 73 75 77 79 80 81 81 81 82 82 82 82 81
51 48 46 46 45 42 39 35 34 35 35 32 29 26 25 24 25 26 26 25 25 24 23 23 24 24 24 24 24 24 23 23 23 23 23 24 24 25 26 26 27 26 26 26 26 26 27 28 29 29 28 29 30 30 30 30 30 30 31 31 33 34 37 40 42 44 46 48 51 55 58 61 64 67 69 71 73 73 74 74 75 76 76 77 77
47 45 45 45 44 39 35 33 33 34 33 29 26 24 24 25 25 26 25 23 23 23 23 22 23 23 23 23 23 22 22 22 22 23 23 23 24 24 25 25 25 26 26 26 26 25 25 27 29 28 27 28 28 29 29 29 29 29 29 30 31 32 34 36 39 41 43 44 46 49 51 54 57 59 61 63 64 65 66 67 68 69 69 70 70
44 45 45 44 40 36 33 32 33 33 31 27 24 23 24 25 25 24 23 22 22 23 22 22 22 23 23 22 21 21 21 22 22 22 23 23 23 23 23 23 23 24 24 24 24 24 25 27 29 29 28 28 28 27 27 27 27 27 28 29 30 31 32 34 36 38 40 42 44 46 48 50 52 53 54 55 56 57 59 60 61 63 63 64 64
44 45 44 41 37 34 31 31 32 31 28 24 23 23 24 25 24 23 22 21 22 22 22 21 22 22 22 21 20 19 20 21 22 23 24 24 23 23 22 22 22 22 23 22 22 22 24 26 28 28 28 28 28 28 27 27 26 26 27 28 29 30 31 32 34 35 37 40 41 43 44 45 46 47 48 49 51 52 54 55 56 57 59 59 60
45 45 42 38 35 33 30 29 30 29 25 23 23 24 24 24 24 22 21 21 22 22 21 21 22 22 21 20 19 19 20 21 22 23 24 24 23 23 22 22 22 22 22 21 21 22 23 25 27 27 27 27 27 27 26 25 24 24 25 27 28 29 30 31 32 34 35 37 38 40 41 41 42 43 44 45 46 48 49 50 51 53 55 56 57
45 44 40 36 34 32 29 28 29 27 24 23 23 23 24 24 23 22 20 21 21 21 21 21 22 21 20 18 18 18 19 20 22 23 23 24 24 24 23 23 23 23 22 22 22 23 24 25 26 26 25 25 25 23 22 21 21 22 23 25 26 28 30 31 31 32 33 34 35 37 38 39 40 41 42 42 43 44 45 47 48 50 52 53 55
44 42 38 34 32 30 28 27 28 26 24 23 23 23 24 24 23 21 20 21 21 21 21 21 21 20 19 18 17 17 19 21 22 23 23 24 24 24 24 24 24 23 23 23 23 25 26 27 27 27 27 26 24 23 21 21 21 21 22 23 25 27 29 30 31 32 33 33 34 35 35 37 38 39 40 40 41 42 44 45 47 48 50 52 54
42 41 36 31 29 28 27 27 27 26 24 22 22 23 24 23 22 21 20 21 22 22 21 21 20 19 18 17 16 17 19 21 22 23 23 24 24 24 24 24 23 24 24 24 25 26 28 29 29 29 29 28 27 26 25 25 24 24 24 24 25 26 28 30 31 32 32 33 34 34 35 36 36 37 39 40 41 42 43 44 45 47 48 49 49
40 39 34 30 27 27 26 26 26 26 24 23 22 23 23 23 22 21 21 22 23 22 21 20 19 18 16 15 16 17 19 20 21 22 22 22 22 22 22 22 22 23 24 24 26 27 29 31 32 32 31 31 30 29 29 29 28 28 27 27 27 27 28 30 31 31 31 32 33 34 35 35 36 38 39 40 40 41 42 42 42 43 44 44 43
38 36 32 29 27 25 25 26 26 26 24 23 22 22 23 23 23 22 21 22 23 22 21 20 18 17 15 14 15 17 18 19 20 20 21 21 20 20 20 20 21 21 22 23 25 27 29 31 32 33 33 32 32 32 31 31 31 30 30 30 31 30 29 30 31 31 31 32 33 34 35 36 37 38 39 39 39 39 39 39 39 40 41 41 42
37 35 31 28 26 25 25 25 26 26 25 23 22 22 23 24 23 22 22 23 23 23 21 19 18 16 14 13 14 16 17 18 18 18 19 18 17 17 17 17 17 18 19 21 23 26 28 29 31 32 32 33 32 32 32 31 31 30 30 31 32 33 31 31 33 33 32 32 33 34 35 36 37 37 37 37 36 36 36 37 38 39 39 40 40
36 34 31 28 26 25 25 25 26 26 25 24 22 23 23 24 24 24 23 23 23 23 21 19 17 15 13 13 14 15 16 16 16 16 15 14 13 13 13 14 15 16 17 18 20 23 25 26 27 28 29 29 29 30 30 29 29 29 29 30 32 32 32 32 33 33 32 32 33 34 34 35 35 35 35 35 35 36 37 37 38 38 38 38 39
35 33 31 29 27 26 25 26 26 26 26 24 23 23 24 25 25 25 24 23 23 23 21 19 17 15 13 12 13 14 14 14 14 13 11 10 10 10 11 12 14 16 16 17 18 19 21 22 23 23 23 23 24 25 25 25 26 26 27 28 29 31 31 32 32 32 32 32 32 32 32 33 34 34 35 35 36 37 37 37 37 37 37 38 40
34 33 31 30 28 27 26 26 27 27 27 25 24 24 25 26 26 26 25 24 24 23 22 19 17 15 12 12 13 13 13 12 12 10 8 7 8 10 11 13 14 16 17 18 18 19 20 21 20 20 19 19 20 20 20 21 23 24 25 26 27 28 29 30 30 30 30 30 30 31 31 32 33 33 34 35 34 34 34 35 36 37 38 39 40
34 33 32 30 30 29 28 27 27 28 28 26 25 25 25 26 27 27 26 25 24 24 23 20 18 15 13 12 13 13 12 11 11 9 8 9 10 12 14 16 18 20 20 21 21 22 23 24 24 24 23 23 23 23 23 23 24 24 25 25 25 25 25 26 27 28 29 30 30 31 31 32 32 32 32 32 33 33 35 36 37 38 40 41 41
34 34 32 31 31 30 29 28 28 29 29 28 27 26 26 27 28 29 27 26 25 25 24 22 19 16 13 12 13 13 12 12 11 10 11 13 14 16 19 22 24 24 24 24 26 27 28 28 28 27 26 25 24 24 24 24 24 23 24 23 23 23 24 24 25 26 27 28 29 30 30 30 31 32 33 33 34 35 37 38 40 41 42 42 42
34 34 33 32 32 31 30 29 29 30 30 30 28 27 27 28 29 30 29 27 27 26 25 24 21 18 15 14 14 14 13 13 13 12 14 16 18 20 23 26 27 28 27 27 28 29 29 29 29 28 27 27 26 25 24 24 24 23 23 22 22 23 24 24 25 26 27 28 30 31 31 32 32 34 35 36 37 38 39 41 42 42 42 41 42
Wind_Direction
257 257 257 257 258 258 258 258 258 257 257 257 256 255 254 253 252 252 251 251 251 251 251 251 251 251 251 251 252 252 251 251 250 249 248 247 246 246 246 246 247 247 247 247 247 247 246 245 245 244 244 242 240 239 239 239 240 240 240 240 241 241 240 240 239 241 243 242 240 241 242 242 244 247 248 250 250 250 251 253 255 256 257 258 258
257 256 256 256 257 257 257 257 258 258 257 257 257 256 255 254 253 252 252 252 251 251 251 251 251 251 251 251 251 251 251 251 251 251 251 250 249 247 246 246 246 247 247 248 248 248 248 247 247 246 245 244 243 242 240 240 240 241 241 241 241 241 241 240 239 240 243 244 242 241 242 242 243 246 248 251 252 252 251 252 255 258 260 262 262
257 257 257 257 257 257 257 257 257 257 257 257 257 257 257 256 255 254 253 252 252 252 252 252 252 252 251 251 251 251 251 251 251 251 251 251 251 250 248 247 247 247 247 247 248 248 248 248 248 248 247 246 246 245 243 242 241 241 241 242 241 241 241 241 241 240 242 244 244 243 243 243 244 245 247 249 252 255 254 253 252 255 260 263 264
258 258 258 258 258 258 257 257 257 256 256 257 257 257 257 257 256 256 255 254 253 253 253 253 253 253 252 252 252 252 251 251 251 251 251 251 252 251 250 249 248 248 247 247 247 247 248 248 248 248 248 248 247 247 246 245 243 242 242 242 242 242 242 241 242 242 242 244 245 245 245 245 245 246 247 248 249 251 254 256 255 254 258 263 264
258 259 259 259 259 259 258 258 257 257 257 257 256 256 256 256 256 256 256 255 255 255 254 254 254 253 253 253 252 252 252 252 252 252 251 251 252 252 252 251 250 249 249 248 248 248 247 247 248 248 248 248 248 248 248 248 246 245 244 243 243 243 243 243 243 243 243 244 246 246 246 247 248 248 248 249 249 248 249 253 256 255 257 261 263
259 259 259 259 259 259 259 258 258 257 257 257 257 256 256 256 255 255 255 255 255 255 255 255 254 254 254 253 253 253 252 252 252 251 251 251 251 251 252 252 251 250 250 249 249 249 248 247 247 248 248 248 248 248 249 249 248 248 246 246 245 244 244 244 244 244 244 244 246 247 247 248 249 250 250 250 251 250 249 251 254 255 256 258 261
258 258 258 258 258 258 259 258 258 258 258 257 257 256 256 256 256 255 255 255 255 255 255 255 254 254 254 254 254 253 253 252 252 251 251 251 251 251 251 252 252 251 251 250 250 250 249 248 248 248 248 247 247 247 248 249 249 249 249 248 247 247 246 245 245 244 244 244 245 247 248 248 249 250 251 252 253 253 253 252 252 253 253 255 257
256 257 258 258 259 258 258 258 258 258 258 258 258 257 257 257 256 256 255 255 255 255 254 254 254 254 254 254 254 254 254 253 253 252 252 251 251 251 251 251 252 252 252 251 251 250 250 250 249 248 248 247 247 247 247 247 248 249 249 249 248 248 248 248 247 246 245 245 245 246 247 249 249 249 250 252 253 254 254 252 252 252 252 252 254
255 255 256 257 258 258 258 258 258 258 258 258 258 258 258 257 257 257 256 256 255 255 255 255 254 254 254 254 254 254 254 254 254 253 253 252 252 251 251 251 252 252 252 251 251 251 250 250 250 250 249 248 247 247 247 247 247 247 248 249 249 249 248 248 248 248 248 247 247 246 247 248 249 249 248 249 251 252 254 255 254 254 253 254 255
256 255 254 255 255 256 257 257 258 258 258 258 258 258 259 258 258 258 257 257 256 256 256 255 255 255 255 254 254 254 254 254 254 254 253 253 253 252 252 251 251 251 251 251 251 251 251 250 250 250 250 249 248 248 247 247 246 246 247 248 249 250 250 249 249 248 249 249 249 249 248 248 249 249 248 248 249 251 253 255 256 256 256 256 256
259 255 254 254 254 254 255 256 257 257 258 258 258 258 258 259 259 259 258 258 257 257 256 256 256 255 255 255 255 255 254 254 254 254 253 253 253 252 252 252 252 251 251 251 251 251 250 250 250 250 250 250 249 249 248 247 246 246 246 246 247 248 249 250 250 249 248 248 249 250 250 250 250 250 249 248 248 249 252 253 255 256 257 257 257
263 260 257 255 253 253 253 254 255 256 257 257 258 258 258 258 259 259 259 259 258 258 257 257 256 256 256 256 256 256 255 255 254 254 254 253 253 253 252 252 252 252 251 250 250 250 250 250 250 249 249 250 250 249 249 248 247 246 245 245 246 247 248 249 249 250 249 248 248 249 250 250 250 251 250 249 248 247 249 252 254 255 256 256 257
261 263 261 259 256 254 254 254 254 255 256 257 258 258 259 259 259 259 259 259 259 259 258 258 257 257 257 257 256 256 256 256 255 255 254 254 254 253 253 252 252 252 251 250 250 250 250 250 249 249 249 249 249 249 249 249 248 247 246 245 245 245 246 247 248 249 250 249 249 249 249 249 249 250 250 250 250 248 248 250 253 254 255 255 256
254 259 261 261 260 259 258 256 255 255 256 257 257 258 259 259 260 260 260 260 260 260 259 259 258 258 257 257 257 257 257 256 256 255 255 255 254 254 253 253 253 253 252 251 250 250 249 249 249 249 249 249 248 249 249 249 249 248 247 245 245 245 245 245 246 247 249 250 249 249 250 249 249 249 249 250 250 251 250 250 252 254 255 256 258
250 255 258 261 262 263 263 262 259 258 257 257 258 259 260 260 261 261 261 261 261 261 260 260 260 259 259 258 258 258 257 257 256 256 255 255 255 254 254 254 253 253 253 252 251 251 250 249 249 249 249 249 248 248 248 248 248 248 248 246 245 244 244 244 245 245 246 248 248 248 249 250 249 250 250 250 250 251 251 252 253 254 256 258 259
249 253 257 261 263 265 266 265 263 262 261 260 261 261 262 262 261 261 261 261 260 260 261 261 261 260 260 259 259 258 258 258 257 257 256 256 255 255 254 254 253 253 253 253 252 252 251 250 249 249 249 249 249 248 247 247 247 248 248 247 246 245 244 244 244 244 245 246 247 247 248 249 250 250 251 251 250 250 251 252 253 254 256 257 258
247 251 255 259 262 263 265 266 267 267 266 265 264 263 262 262 262 262 261 261 261 261 261 261 261 261 260 260 259 259 259 259 258 258 258 257 257 256 255 254 254 253 253 253 252 252 251 251 250 249 249 249 249 248 247 246 246 246 247 247 247 246 245 245 244 244 244 245 245 246 247 248 249 249 250 251 251 251 250 251 252 253 255 256 257
246 248 252 256 259 262 265 268 270 271 270 269 267 265 263 262 262 261 261 261 261 261 262 262 262 261 261 260 260 259 259 259 259 259 259 258 258 257 256 255 255 254 253 252 252 251 251 251 250 249 249 248 248 249 248 247 246 245 246 247 247 247 246 246 245 244 244 244 245 245 246 247 248 248 249 250 251 251 251 251 251 252 253 254 255
247 250 253 256 258 261 265 268 271 272 273 272 271 270 268 266 264 262 261 261 262 262 262 262 262 262 261 261 260 260 260 260 260 260 259 259 258 257 256 255 255 254 253 252 252 251 250 250 250 249 248 247 247 248 248 248 247 245 245 245 246 247 247 246 245 244 244 244 245 245 246 246 247 247 248 248 250 251 251 251 251 251 252 253 254
249 251 253 255 257 260 263 266 269 272 273 274 273 273 271 269 265 263 263 263 263 263 263 263 262 262 262 262 262 262 262 262 262 261 260 259 258 257 255 255 254 253 253 252 252 251 250 249 249 248 247 247 247 247 247 247 247 246 245 245 245 246 246 246 246 245 244 244 244 245 246 246 247 247 248 248 249 250 250 251 251 250 251 251 253
247 248 250 252 255 259 263 266 269 272 273 274 274 273 272 270 268 267 266 266 265 264 263 261 261 262 263 264 264 264 264 263 263 262 260 259 258 257 256 255 254 253 253 253 252 251 250 249 248 247 247 246 246 246 246 247 247 247 246 245 244 244 246 247 247 246 245 244 244 244 246 246 247 247 248 248 248 249 250 250 250 250 250 251 251
245 247 249 252 256 260 264 267 270 271 272 272 272 272 272 271 271 271 270 268 266 264 262 261 262 263 265 266 265 265 264 263 262 262 261 261 261 260 259 257 256 254 253 253 252 251 249 248 247 247 246 246 246 246 246 246 246 247 247 246 244 244 244 246 247 247 246 244 244 244 245 246 247 247 248 248 248 249 249 250 250 250 250 250 250
246 249 252 255 258 261 264 267 269 270 271 271 272 272 272 273 274 274 272 269 266 264 263 263 264 265 265 265 264 263 262 262 262 262 262 262 262 261 260 258 257 256 254 253 252 251 249 248 247 247 246 245 245 245 245 245 245 246 246 246 245 244 244 244 246 247 247 246 244 244 244 246 247 247 248 248 249 249 249 249 249 250 250 251 251
250 252 255 258 260 263 265 267 268 269 270 271 271 272 273 275 276 275 271 268 266 265 265 266 265 264 263 262 262 261 261 261 262 263 263 263 263 262 261 260 259 258 256 254 253 251 249 248 247 247 246 246 245 244 244 244 244 244 245 245 245 245 244 244 245 246 247 247 245 244 244 245 246 247 247 248 248 248 248 248 248 249 250 251 252
253 255 257 259 261 263 265 266 268 270 271 272 272 273 274 276 275 273 269 267 267 267 266 265 264 262 261 261 261 262 262 262 263 264 264 263 262 262 262 262 261 259 257 255 254 253 252 250 249 248 247 246 245 244 244 243 243 243 243 244 245 245 244 244 244 245 246 247 246 245 245 245 245 246 247 247 247 248 248 247 248 248 248 249 250
254 256 258 260 262 264 265 268 270 272 272 272 274 275 276 275 274 271 269 268 268 267 266 264 262 261 261 262 262 263 264 264 264 263 262 261 261 262 262 261 260 258 256 255 254 254 253 252 251 250 248 247 246 245 244 243 243 243 243 243 243 243 243 243 243 243 244 245 245 245 245 245 245 245 246 246 247 247 248 247 247 247 248 249 249
252 256 258 260 263 265 268 270 271 272 273 275 277 278 277 275 273 271 269 269 268 266 265 263 262 262 263 263 264 264 264 264 263 261 260 259 260 260 260 259 257 256 255 254 254 253 253 253 252 251 250 249 247 246 244 243 243 242 242 242 242 242 242 242 242 242 243 243 244 244 244 244 244 245 245 245 246 247 247 247 246 246 247 248 249
252 255 258 261 264 267 269 270 271 273 276 278 278 278 276 274 272 270 269 267 266 265 264 264 263 264 265 265 264 264 263 262 261 260 260 260 259 259 258 257 256 255 254 253 253 253 252 252 252 251 251 250 249 247 246 244 243 242 242 241 241 240 240 240 241 241 241 241 242 242 242 243 243 243 243 244 244 245 246 246 246 245 246 246 247
254 257 260 262 265 267 269 270 272 275 277 278 278 278 275 273 271 269 267 265 265 265 266 266 265 265 265 265 264 263 263 262 261 261 261 260 259 258 257 256 255 255 254 253 252 252 252 252 251 251 251 250 249 248 247 246 244 243 242 241 240 239 239 239 239 239 240 240 240 240 240 241 241 242 242 242 242 243 244 245 245 245 245 246 246
255 258 261 263 265 266 268 271 273 275 276 277 277 275 273 271 270 267 265 264 265 267 268 268 266 265 264 263 263 263 264 263 261 261 262 262 260 259 259 258 257 257 255 254 253 253 253 252 251 250 250 249 248 247 247 246 244 243 242 240 239 238 238 237 237 237 237 238 238 238 238 238 239 240 241 241 241 242 242 243 244 244 244 245 246
257 259 262 263 265 267 270 272 272 273 274 274 273 271 271 270 268 265 263 265 267 268 268 267 265 264 264 263 263 263 265 265 264 263 263 263 262 261 260 259 258 257 255 253 253 253 252 252 251 250 248 247 247 246 246 245 244 242 241 239 238 237 236 235 234 234 234 235 235 236 236 237 238 238 239 240 241 241 241 242 243 243 244 244 245
258 260 262 264 266 268 270 270 270 271 272 271 270 270 269 268 267 266 265 265 267 268 267 266 265 264 264 265 265 265 265 266 266 264 263 262 262 261 260 258 255 254 253 251 250 250 250 250 249 248 247 246 245 245 245 244 242 241 239 238 236 235 234 233 233 232 232 233 233 233 234 235 236 237 237 238 239 239 240 240 241 242 243 243 244
258 261 262 264 266 266 267 267 268 270 269 268 268 269 268 266 266 268 267 267 267 267 266 266 265 265 265 265 266 265 265 264 265 264 262 260 259 259 259 258 255 252 250 248 247 247 248 248 248 247 245 245 244 243 243 243 241 239 237 236 235 234 233 232 232 231 231 232 232 232 233 233 234 235 235 236 237 237 238 239 240 240 241 242 243
259 261 263 265 265 265 265 267 269 268 267 266 267 268 267 266 266 267 268 268 268 266 266 266 266 265 264 264 264 264 263 262 262 262 262 261 259 258 258 258 256 253 249 246 244 243 244 246 247 245 243 242 242 241 241 241 240 238 236 234 233 232 231 230 230 230 230 231 231 231 232 233 233 234 234 235 235 236 236 237 238 239 240 241 242
259 262 263 264 264 264 266 268 268 267 265 265 266 266 265 265 266 267 267 268 268 266 265 265 264 264 263 261 261 261 262 262 262 263 263 263 262 260 258 257 256 254 251 248 244 241 240 243 245 244 241 239 238 237 236 237 238 238 236 233 231 230 229 229 228 228 228 228 229 230 230 231 232 232 233 234 234 235 236 236 237 238 239 240 240
261 263 263 263 264 266 268 268 267 265 264 264 263 263 263 263 264 266 267 267 267 265 263 261 260 260 259 258 258 260 262 264 266 267 267 266 265 264 261 259 256 254 251 249 246 243 239 239 241 241 238 235 234 233 232 231 233 235 235 234 232 229 228 228 227 226 226 226 226 227 228 229 230 231 232 233 233 234 235 235 235 236 237 238 238
263 263 262 262 264 267 268 267 265 263 262 262 260 259 260 261 263 264 265 265 263 261 259 257 255 255 255 255 257 260 264 267 270 272 272 271 268 266 263 260 257 254 251 248 245 243 239 237 238 238 235 232 230 229 228 227 227 229 231 232 231 229 227 227 226 226 226 225 225 225 226 227 228 229 230 231 232 232 233 233 233 234 235 235 235
262 261 262 263 265 267 266 265 263 261 259 258 257 256 258 260 261 263 263 261 258 256 254 253 251 250 251 254 257 261 266 271 274 275 275 273 270 267 265 263 259 255 252 248 244 241 238 236 236 235 233 230 228 227 226 225 224 225 226 227 228 227 227 226 225 225 225 225 225 225 226 227 228 228 229 229 230 230 230 231 231 231 232 232 232
261 261 262 264 265 266 264 261 259 257 255 254 254 254 256 258 260 261 259 255 252 250 248 247 247 248 250 253 257 262 268 272 274 274 274 273 272 270 268 265 262 258 254 249 244 240 238 236 236 235 232 230 229 227 225 223 222 222 223 224 225 225 224 224 224 224 224 224 224 224 224 224 224 225 225 225 226 226 226 227 227 228 229 229 230
261 261 262 263 263 263 259 256 254 254 252 251 252 254 256 258 259 258 255 250 247 245 242 242 244 247 249 252 258 265 271 274 275 274 274 274 274 272 271 269 266 261 257 252 246 240 237 236 235 234 232 230 229 228 226 224 221 220 220 221 222 222 222 222 222 222 223 223 223 223 222 221 220 220 220 220 221 221 222 222 223 225 226 227 228
260 261 261 260 259 257 253 250 250 250 248 247 249 253 256 257 257 255 250 245 241 240 238 239 242 245 248 252 259 267 273 274 274 275 275 275 274 273 272 269 266 262 257 252 245 239 235 233 233 232 231 231 230 230 230 230 228 226 224 222 220 220 220 220 219 219 219 220 220 219 219 218 217 216 216 215 216 217 218 219 220 222 224 225 227
258 260 259 257 253 250 247 245 246 246 245 245 247 252 255 256 255 251 244 239 237 236 235 237 241 244 247 253 261 269 272 273 273 274 274 273 272 272 270 267 264 259 255 249 243 237 232 230 230 230 230 230 230 231 233 234 234 233 233 231 226 221 218 217 217 217 216 217 217 216 215 215 214 213 213 213 214 215 216 217 219 221 223 226 228
257 258 257 254 248 243 241 241 242 243 243 243 246 251 253 253 252 246 238 234 235 234 233 235 240 244 248 254 264 270 273 274 275 275 273 272 271 270 268 265 260 255 249 244 238 234 230 229 229 229 230 231 232 233 235 237 237 237 236 236 234 228 220 216 215 214 213 213 213 213 212 212 212 211 211 212 213 214 215 217 219 221 223 225 226
256 256 255 251 244 238 235 236 239 241 242 242 245 249 251 250 248 242 233 230 232 232 231 234 239 243 248 257 266 272 275 276 277 277 275 274 273 271 267 262 256 249 243 237 232 229 228 227 227 229 230 231 233 234 236 237 237 237 235 233 233 230 223 214 211 210 210 209 208 209 209 209 209 210 210 211 212 213 215 216 218 220 221 222 222
255 254 252 248 242 236 233 233 235 238 240 241 244 247 248 247 244 238 230 227 230 230 230 233 238 242 248 258 267 272 275 277 278 277 276 276 274 270 264 256 248 241 235 230 226 224 223 223 225 227 229 231 233 234 235 235 234 232 229 226 225 225 220 211 207 207 207 205 204 205 206 206 207 208 209 209 211 212 213 215 216 218 219 220 220
254 252 249 245 241 236 232 231 234 237 239 241 243 245 245 243 241 235 227 225 227 228 227 231 236 239 246 257 266 271 274 276 277 277 278 277 272 263 251 239 229 221 217 217 217 218 217 218 219 222 225 228 229 230 230 229 228 225 222 218 217 216 211 205 203 204 204 202 200 201 202 204 205 205 206 207 209 210 211 213 215 216 216 216 216
252 250 247 243 239 235 231 230 232 236 239 240 242 243 242 240 238 233 226 223 224 225 225 228 232 237 244 255 263 267 271 273 274 275 274 269 258 244 229 217 209 201 196 195 198 203 205 206 208 210 213 216 218 219 219 217 215 213 210 206 204 202 199 197 199 201 200 198 196 197 199 200 201 202 204 207 209 211 212 213 213 213 212 212 212
251 248 245 241 238 234 231 229 231 234 238 240 241 242 240 237 235 232 225 221 221 223 224 224 227 232 240 250 257 261 264 266 267 266 257 240 228 219 207 195 185 179 176 176 178 182 184 183 182 181 183 184 185 186 187 187 186 186 186 186 188 191 193 195 196 197 195 193 193 195 197 200 202 203 206 209 211 212 212 212 210 210 209 209 209
249 247 244 241 238 235 231 228 229 233 236 238 240 240 238 235 233 230 224 219 219 222 222 221 222 226 233 241 248 252 254 254 253 245 223 207 202 194 182 170 162 160 161 163 163 163 162 160 157 156 156 157 158 159 161 165 167 169 172 175 180 186 191 193 193 193 192 193 194 197 200 202 204 206 208 209 209 209 208 207 206 205 205 205 206
248 247 244 240 238 235 231 228 228 230 234 237 238 238 235 232 230 228 224 218 217 219 220 219 218 220 224 230 237 240 240 241 238 222 199 192 189 181 171 163 157 155 156 157 156 156 155 153 152 151 152 154 157 159 160 163 166 168 171 174 178 183 188 192 194 196 197 198 200 202 205 207 208 208 208 207 206 205 204 202 202 202 202 203 203
247 246 244 241 238 235 232 228 227 228 232 235 236 236 233 230 228 227 223 218 215 217 219 217 216 216 216 219 225 229 229 229 226 210 192 187 185 179 172 165 160 156 155 156 157 158 158 156 155 156 157 159 161 163 165 168 170 172 174 178 183 188 193 196 199 202 205 206 207 207 208 209 209 208 206 204 202 201 200 199 200 200 200 200 200
Height
10539 10542 10544 10544 10545 10547 10549 10550 10551 10552 10554 10556 10557 10559 10561 10563 10565 10566 10567 10569 10571 10572 10573 10575 10577 10579 10580 10582 10583 10585 10587 10588 10591 10593 10594 10596 10597 10599 10601 10604 10606 10607 10609 10612 10615 10618 10622 10625 10627 10629 10632 10636 10639 10642 10644 10646 10649 10651 10654 10658 10661 10664 10666 10670 10674 10674 10671 10675 10681 10683 10686 10691 10693 10693 10694 10694 10695 10697 10698 10700 10703 10704 10705 10705 10706
10529 10533 10534 10535 10535 10537 10538 10540 10541 10543 10544 10546 10548 10549 10551 10553 10555 10556 10557 10559 10561 10562 10564 10566 10569 10570 10572 10573 10575 10576 10578 10579 10581 10583 10584 10585 10587 10589 10592 10594 10597 10599 10600 10602 10606 10609 10612 10615 10617 10619 10623 10627 10630 10632 10635 10638 10640 10643 10646 10649 10652 10655 10658 10661 10665 10668 10665 10665 10672 10677 10680 10685 10687 10687 10688 10689 10689 10690 10692 10695 10698 10699 10699 10700 10701
10519 10522 10524 10524 10525 10527 10528 10529 10531 10533 10534 10536 10538 10540 10542 10543 10544 10546 10547 10549 10551 10553 10555 10558 10560 10561 10562 10563 10565 10567 10568 10570 10571 10573 10574 10575 10576 10578 10581 10584 10587 10590 10591 10593 10596 10600 10603 10606 10608 10609 10613 10618 10621 10623 10625 10628 10631 10634 10636 10639 10643 10645 10648 10652 10656 10660 10659 10657 10662 10670 10673 10677 10681 10681 10682 10684 10684 10684 10685 10688 10692 10693 10693 10694 10695
10509 10512 10513 10514 10515 10516 10518 10519 10521 10522 10524 10526 10528 10530 10532 10533 10534 10535 10537 10539 10542 10544 10546 10548 10550 10551 10552 10553 10555 10557 10558 10560 10562 10563 10564 10565 10566 10568 10570 10574 10578 10580 10582 10584 10587 10590 10594 10596 10598 10599 10603 10608 10611 10612 10615 10617 10621 10625 10627 10630 10633 10635 10638 10643 10647 10650 10652 10650 10653 10661 10665 10668 10673 10675 10677 10679 10679 10678 10678 10680 10684 10687 10688 10688 10688
10498 10501 10502 10503 10504 10505 10507 10508 10510 10512 10514 10515 10517 10519 10521 10522 10523 10525 10527 10529 10532 10535 10537 10538 10539 10540 10541 10542 10544 10546 10548 10550 10552 10553 10554 10555 10556 10558 10560 10564 10567 10570 10573 10574 10577 10580 10584 10586 10588 10590 10593 10598 10601 10602 10604 10607 10610 10615 10618 10620 10623 10626 10628 10633 10637 10641 10644 10644 10645 10651 10657 10660 10664 10668 10670 10671 10671 10673 10674 10673 10675 10679 10682 10681 10681
10488 10490 10491 10492 10493 10494 10495 10496 10498 10501 10503 10505 10507 10508 10509 10511 10512 10514 10517 10519 10522 10524 10526 10527 10528 10529 10529 10530 10532 10535 10537 10539 10541 10541 10542 10544 10546 10548 10551 10554 10557 10560 10562 10564 10567 10570 10573 10576 10578 10579 10583 10587 10590 10592 10594 10596 10600 10604 10608 10610 10613 10616 10619 10623 10627 10631 10634 10637 10638 10641 10648 10652 10655 10659 10661 10661 10662 10665 10668 10668 10668 10671 10674 10674 10673
10476 10478 10479 10480 10481 10482 10483 10485 10487 10489 10491 10493 10495 10496 10498 10499 10501 10504 10507 10509 10512 10513 10515 10515 10516 10517 10517 10518 10520 10523 10525 10527 10528 10529 10531 10533 10536 10539 10542 10544 10547 10550 10552 10554 10556 10559 10562 10565 10567 10569 10572 10576 10579 10582 10584 10587 10590 10593 10597 10599 10601 10605 10609 10612 10617 10621 10625 10629 10630 10633 10638 10642 10645 10650 10652 10652 10654 10658 10661 10661 10660 10661 10665 10665 10665
10465 10467 10468 10468 10469 10470 10471 10473 10475 10476 10479 10481 10483 10484 10486 10488 10490 10493 10496 10499 10501 10503 10504 10504 10504 10504 10505 10507 10509 10511 10513 10514 10515 10517 10519 10522 10526 10529 10532 10534 10537 10540 10542 10543 10546 10548 10551 10553 10555 10557 10560 10564 10567 10571 10574 10576 10580 10583 10585 10587 10590 10594 10598 10601 10605 10610 10615 10619 10622 10625 10628 10631 10636 10642 10644 10644 10647 10648 10649 10649 10649 10652 10654 10656 10658
10455 10457 10458 10458 10457 10457 10458 10460 10462 10464 10466 10469 10470 10472 10474 10476 10479 10482 10485 10488 10490 10491 10492 10492 10492 10492 10494 10495 10497 10499 10501 10502 10503 10505 10507 10510 10514 10518 10521 10524 10527 10529 10531 10533 10535 10537 10540 10542 10544 10546 10548 10552 10555 10559 10562 10565 10569 10573 10574 10575 10579 10583 10587 10590 10595 10599 10604 10608 10612 10616 10618 10621 10626 10632 10635 10638 10638 10636 10636 10639 10641 10643 10644 10647 10652
10440 10443 10444 10446 10445 10445 10445 10446 10448 10451 10454 10456 10458 10459 10461 10464 10467 10470 10474 10476 10477 10479 10479 10479 10479 10480 10482 10484 10486 10488 10489 10490 10491 10492 10495 10498 10502 10506 10510 10513 10515 10518 10520 10522 10524 10526 10528 10531 10533 10535 10536 10540 10543 10546 10550 10553 10558 10562 10564 10565 10568 10572 10575 10580 10585 10589 10594 10597 10600 10604 10608 10613 10617 10620 10624 10629 10629 10628 10630 10631 10631 10632 10635 10640 10644
10420 10426 10429 10431 10432 10431 10432 10434 10435 10437 10440 10442 10444 10447 10449 10452 10454 10458 10461 10463 10464 10465 10466 10466 10467 10468 10470 10472 10474 10476 10477 10477 10478 10480 10483 10486 10490 10493 10497 10500 10503 10506 10509 10511 10512 10514 10516 10519 10522 10524 10526 10528 10530 10534 10537 10541 10545 10550 10553 10555 10557 10561 10565 10569 10574 10578 10583 10587 10589 10592 10598 10605 10606 10608 10613 10618 10621 10622 10622 10621 10622 10623 10626 10629 10633
10402 10407 10413 10416 10417 10417 10418 10420 10422 10424 10427 10429 10431 10434 10437 10440 10443 10445 10447 10449 10450 10451 10451 10453 10454 10456 10459 10461 10462 10463 10464 10464 10466 10468 10470 10473 10477 10480 10484 10487 10490 10493 10496 10499 10500 10502 10504 10507 10510 10512 10515 10516 10518 10521 10525 10528 10532 10537 10541 10544 10547 10551 10555 10559 10562 10565 10571 10576 10579 10582 10589 10594 10594 10597 10602 10606 10608 10611 10612 10612 10614 10616 10616 10618 10622
10390 10391 10396 10399 10402 10404 10406 10408 10410 10412 10414 10416 10419 10422 10425 10428 10430 10432 10434 10435 10435 10436 10437 10439 10441 10444 10446 10448 10449 10450 10451 10451 10453 10455 10457 10460 10464 10468 10472 10475 10478 10480 10483 10485 10488 10490 10492 10495 10497 10500 10502 10504 10507 10510 10512 10515 10519 10523 10528 10533 10536 10540 10544 10549 10552 10554 10558 10564 10569 10573 10577 10580 10583 10586 10590 10593 10595 10600 10604 10605 10605 10606 10607 10610 10612
10384 10379 10380 10383 10386 10390 10393 10395 10398 10401 10403 10405 10408 10410 10413 10416 10418 10420 10420 10421 10421 10421 10423 10425 10428 10431 10433 10434 10436 10437 10437 10438 10439 10442 10445 10448 10451 10455 10460 10463 10465 10467 10469 10472 10475 10478 10480 10482 10485 10488 10489 10491 10495 10497 10500 10502 10505 10510 10515 10521 10525 10529 10532 10538 10542 10545 10547 10552 10559 10563 10563 10566 10571 10574 10577 10582 10586 10589 10594 10596 10596 10597 10599 10601 10605
10378 10369 10367 10370 10374 10377 10380 10382 10385 10389 10393 10395 10397 10400 10403 10405 10406 10407 10406 10406 10406 10406 10408 10411 10414 10417 10419 10420 10422 10423 10423 10423 10425 10428 10431 10434 10438 10442 10447 10450 10452 10453 10455 10458 10461 10465 10468 10470 10473 10475 10476 10478 10481 10483 10487 10489 10492 10496 10502 10508 10513 10517 10522 10527 10531 10534 10537 10541 10547 10551 10551 10554 10560 10564 10566 10572 10577 10580 10583 10587 10589 10591 10592 10594 10599
10370 10362 10360 10362 10364 10366 10366 10367 10371 10377 10383 10386 10388 10391 10393 10393 10393 10392 10392 10392 10392 10392 10395 10398 10401 10403 10404 10406 10407 10408 10408 10408 10411 10414 10417 10420 10424 10428 10432 10436 10438 10440 10442 10444 10447 10451 10454 10457 10460 10462 10464 10465 10466 10468 10472 10476 10480 10484 10488 10493 10499 10505 10511 10516 10519 10523 10527 10530 10534 10539 10540 10543 10550 10555 10557 10561 10567 10571 10574 10578 10581 10584 10584 10586 10590
10361 10356 10355 10355 10355 10354 10352 10354 10360 10367 10372 10375 10378 10380 10380 10380 10379 10378 10377 10377 10378 10380 10383 10385 10387 10388 10389 10390 10391 10393 10393 10394 10396 10400 10403 10406 10410 10414 10418 10421 10424 10426 10429 10430 10433 10437 10440 10442 10446 10449 10452 10452 10452 10453 10456 10461 10467 10472 10475 10479 10485 10493 10500 10504 10507 10511 10516 10519 10523 10527 10530 10533 10539 10545 10548 10549 10553 10559 10564 10570 10573 10574 10576 10578 10582
10349 10347 10347 10348 10347 10344 10342 10345 10351 10356 10359 10363 10366 10367 10368 10367 10366 10365 10364 10364 10367 10369 10371 10372 10373 10374 10374 10375 10376 10378 10379 10380 10382 10386 10389 10391 10395 10399 10402 10406 10409 10411 10414 10415 10418 10421 10425 10428 10431 10435 10438 10438 10437 10438 10440 10445 10453 10459 10462 10466 10473 10482 10489 10490 10492 10499 10504 10508 10513 10517 10520 10524 10529 10534 10538 10539 10541 10548 10555 10560 10562 10564 10568 10570 10571
10338 10338 10341 10342 10339 10334 10334 10338 10342 10344 10348 10351 10353 10354 10355 10355 10354 10352 10353 10354 10357 10359 10359 10360 10360 10359 10359 10361 10362 10364 10366 10367 10368 10372 10374 10376 10379 10383 10387 10391 10394 10395 10397 10399 10402 10406 10410 10413 10415 10418 10422 10423 10423 10424 10426 10430 10437 10444 10449 10455 10463 10471 10473 10472 10477 10487 10493 10498 10504 10507 10510 10514 10518 10522 10527 10529 10533 10539 10544 10547 10551 10556 10560 10560 10560
10331 10333 10334 10332 10328 10325 10328 10331 10333 10335 10338 10340 10342 10343 10343 10342 10342 10342 10343 10346 10348 10348 10348 10348 10347 10346 10346 10348 10350 10351 10353 10355 10355 10357 10359 10361 10363 10367 10372 10376 10378 10380 10381 10384 10387 10390 10394 10397 10398 10400 10403 10406 10408 10411 10413 10417 10423 10429 10435 10445 10455 10458 10454 10455 10465 10474 10481 10488 10494 10497 10500 10504 10507 10512 10516 10520 10525 10530 10532 10535 10542 10547 10548 10549 10552
10323 10322 10321 10319 10317 10318 10322 10324 10326 10328 10330 10330 10331 10331 10331 10332 10332 10333 10335 10337 10338 10338 10337 10336 10335 10335 10335 10337 10339 10340 10341 10343 10343 10343 10345 10347 10349 10353 10358 10361 10363 10365 10368 10370 10372 10375 10376 10379 10380 10382 10385 10390 10394 10398 10402 10406 10410 10416 10423 10433 10442 10442 10440 10445 10453 10459 10468 10478 10484 10487 10491 10494 10497 10502 10506 10510 10515 10519 10521 10525 10531 10535 10537 10540 10543
10310 10309 10308 10308 10310 10313 10316 10318 10320 10320 10321 10321 10321 10321 10322 10323 10324 10325 10326 10328 10328 10327 10325 10325 10326 10327 10327 10327 10328 10328 10329 10330 10331 10332 10333 10336 10339 10341 10344 10346 10348 10352 10355 10357 10357 10358 10359 10361 10363 10365 10369 10376 10381 10385 10390 10395 10399 10404 10411 10418 10424 10428 10432 10437 10441 10445 10455 10465 10471 10477 10482 10484 10487 10492 10496 10499 10504 10508 10511 10516 10520 10523 10526 10529 10531
10298 10297 10299 10303 10306 10309 10311 10312 10312 10312 10312 10312 10313 10313 10314 10315 10316 10317 10318 10318 10318 10316 10316 10317 10319 10319 10318 10317 10317 10318 10318 10319 10321 10323 10325 10327 10328 10329 10331 10333 10335 10339 10343 10344 10342 10342 10344 10346 10348 10351 10356 10363 10368 10372 10377 10382 10388 10393 10398 10401 10408 10415 10422 10427 10430 10433 10441 10449 10458 10467 10472 10473 10476 10481 10484 10488 10493 10497 10501 10505 10509 10512 10515 10517 10520
10288 10290 10294 10298 10300 10302 10303 10303 10304 10304 10304 10305 10305 10306 10307 10307 10308 10309 10309 10309 10308 10308 10308 10310 10311 10311 10310 10308 10307 10308 10309 10310 10312 10314 10316 10317 10316 10316 10318 10321 10324 10327 10330 10330 10328 10328 10331 10333 10336 10339 10343 10349 10354 10359 10364 10370 10375 10380 10383 10386 10393 10401 10411 10417 10420 10422 10427 10435 10445 10455 10459 10461 10465 10469 10473 10478 10481 10483 10488 10494 10497 10501 10504 10506 10509
10281 10284 10288 10291 10293 10294 10295 10295 10296 10297 10297 10298 10298 10299 10300 10301 10301 10300 10300 10300 10301 10301 10301 10302 10302 10302 10301 10300 10299 10299 10300 10302 10304 10306 10307 10307 10305 10306 10309 10311 10313 10316 10318 10317 10317 10318 10320 10322 10325 10328 10332 10336 10341 10347 10352 10356 10360 10364 10368 10373 10380 10389 10398 10405 10408 10411 10415 10423 10432 10440 10444 10448 10453 10457 10462 10466 10468 10471 10477 10483 10487 10490 10493 10496 10499
10275 10278 10281 10283 10285 10286 10286 10288 10289 10290 10290 10290 10291 10292 10293 10294 10293 10292 10292 10293 10294 10294 10294 10294 10294 10294 10293 10293 10293 10292 10292 10295 10297 10298 10298 10297 10297 10298 10301 10302 10304 10306 10306 10306 10308 10309 10310 10312 10315 10318 10321 10325 10330 10335 10339 10342 10346 10349 10354 10361 10369 10376 10384 10390 10394 10399 10404 10410 10418 10425 10430 10435 10440 10444 10449 10453 10456 10460 10465 10471 10477 10481 10484 10487 10490
10270 10272 10273 10276 10277 10278 10280 10281 10282 10282 10282 10283 10284 10285 10286 10286 10285 10285 10286 10287 10287 10287 10287 10287 10287 10287 10286 10286 10286 10286 10286 10287 10289 10289 10289 10290 10291 10292 10293 10294 10295 10296 10297 10298 10300 10301 10301 10303 10306 10309 10312 10316 10319 10323 10326 10329 10333 10337 10342 10349 10356 10363 10368 10374 10380 10387 10392 10397 10404 10411 10416 10421 10425 10429 10436 10442 10446 10448 10452 10458 10466 10472 10474 10477 10480
10263 10265 10267 10269 10271 10272 10273 10274 10274 10275 10276 10277 10278 10279 10279 10279 10279 10279 10280 10281 10281 10280 10280 10281 10281 10281 10280 10280 10280 10280 10279 10280 10282 10282 10282 10283 10284 10284 10285 10286 10287 10288 10290 10291 10292 10293 10294 10296 10299 10301 10304 10307 10309 10313 10316 10319 10323 10327 10331 10337 10343 10348 10354 10361 10367 10373 10378 10384 10391 10396 10401 10405 10409 10415 10423 10429 10433 10437 10441 10447 10454 10460 10463 10466 10470
10257 10260 10262 10263 10265 10266 10267 10267 10268 10269 10270 10272 10273 10273 10272 10273 10273 10273 10275 10275 10275 10274 10274 10274 10274 10274 10274 10274 10274 10274 10273 10274 10276 10276 10276 10277 10278 10278 10278 10279 10280 10281 10283 10285 10285 10286 10287 10290 10292 10294 10296 10299 10301 10304 10306 10310 10313 10317 10321 10326 10331 10336 10342 10348 10353 10359 10364 10370 10376 10381 10386 10390 10395 10402 10409 10414 10418 10424 10430 10435 10441 10447 10452 10456 10460
10252 10254 10256 10258 10259 10260 10260 10262 10262 10263 10265 10267 10267 10266 10266 10267 10267 10268 10269 10269 10269 10269 10268 10268 10268 10269 10268 10268 10268 10268 10267 10268 10270 10270 10270 10271 10272 10272 10273 10274 10275 10276 10278 10279 10280 10280 10282 10284 10286 10288 10289 10292 10294 10296 10299 10302 10305 10308 10312 10316 10320 10325 10330 10335 10340 10345 10350 10356 10361 10366 10371 10376 10382 10389 10396 10401 10406 10413 10420 10425 10430 10437 10442 10446 10450
10247 10248 10250 10252 10253 10254 10255 10256 10257 10259 10261 10262 10261 10261 10261 10261 10262 10263 10264 10264 10264 10263 10263 10263 10263 10264 10263 10263 10263 10263 10263 10263 10264 10265 10266 10266 10266 10267 10268 10269 10270 10271 10273 10274 10275 10276 10277 10279 10280 10282 10284 10286 10288 10290 10292 10295 10297 10300 10304 10307 10311 10314 10319 10323 10328 10332 10337 10342 10347 10352 10358 10364 10370 10377 10383 10389 10395 10403 10410 10415 10420 10426 10431 10435 10439
10241 10243 10245 10246 10247 10249 10250 10251 10253 10255 10257 10257 10255 10255 10255 10257 10257 10257 10258 10259 10259 10258 10258 10257 10258 10258 10258 10258 10258 10258 10259 10259 10259 10261 10261 10262 10262 10262 10263 10264 10266 10267 10268 10270 10270 10271 10273 10274 10275 10277 10279 10281 10283 10285 10286 10289 10291 10294 10297 10300 10303 10306 10310 10314 10318 10322 10326 10330 10336 10341 10347 10352 10358 10365 10372 10378 10385 10392 10398 10404 10409 10414 10419 10423 10429
10237 10238 10240 10241 10242 10244 10245 10247 10249 10251 10251 10250 10249 10250 10250 10252 10253 10252 10252 10253 10254 10253 10253 10252 10253 10253 10253 10254 10254 10254 10255 10256 10256 10256 10257 10258 10258 10258 10259 10260 10261 10263 10264 10265 10266 10268 10269 10270 10271 10273 10275 10277 10278 10280 10282 10284 10286 10288 10291 10294 10297 10300 10304 10307 10310 10314 10318 10323 10328 10333 10338 10343 10349 10355 10362 10368 10375 10381 10387 10393 10398 10403 10408 10413 10419
10232 10233 10234 10236 10237 10239 10240 10242 10244 10245 10244 10243 10244 10245 10246 10247 10247 10247 10247 10248 10248 10248 10248 10248 10248 10249 10249 10250 10250 10251 10251 10252 10252 10253 10253 10254 10254 10255 10255 10256 10257 10258 10260 10261 10262 10264 10265 10266 10268 10270 10272 10273 10274 10276 10278 10279 10281 10283 10286 10288 10291 10294 10298 10301 10304 10308 10312 10317 10322 10327 10332 10337 10343 10348 10354 10359 10365 10371 10377 10383 10388 10393 10398 10404 10409
10227 10228 10230 10231 10232 10234 10236 10238 10239 10238 10237 10238 10239 10241 10242 10242 10242 10242 10243 10243 10243 10243 10244 10244 10244 10245 10246 10247 10247 10248 10248 10248 10249 10249 10250 10250 10251 10252 10252 10253 10254 10255 10256 10257 10258 10260 10262 10263 10264 10266 10268 10270 10271 10272 10274 10275 10277 10279 10282 10284 10287 10290 10293 10296 10299 10302 10307 10311 10316 10321 10326 10331 10336 10341 10346 10351 10357 10363 10369 10375 10380 10385 10390 10395 10400
10222 10224 10225 10225 10227 10229 10231 10233 10233 10232 10231 10233 10235 10237 10237 10237 10238 10238 10238 10239 10239 10239 10240 10241 10241 10242 10243 10243 10244 10244 10245 10245 10245 10246 10246 10247 10247 10248 10248 10249 10250 10251 10252 10253 10254 10256 10258 10259 10260 10262 10264 10266 10267 10268 10270 10272 10274 10276 10278 10281 10283 10286 10288 10291 10295 10298 10302 10306 10310 10315 10320 10325 10329 10334 10340 10345 10351 10357 10362 10367 10372 10376 10381 10387 10392
10217 10218 10219 10220 10222 10224 10226 10227 10226 10226 10227 10229 10231 10232 10232 10232 10233 10234 10234 10235 10235 10235 10236 10238 10239 10239 10240 10240 10241 10241 10241 10241 10242 10242 10242 10243 10243 10244 10244 10245 10246 10247 10248 10249 10250 10252 10254 10255 10256 10258 10260 10262 10264 10265 10267 10269 10271 10273 10275 10278 10280 10282 10285 10288 10291 10295 10299 10302 10306 10311 10315 10319 10324 10329 10335 10340 10345 10350 10355 10360 10364 10369 10374 10379 10384
10212 10213 10214 10216 10217 10219 10221 10221 10220 10221 10223 10225 10226 10227 10228 10228 10229 10230 10230 10231 10231 10232 10233 10235 10236 10236 10237 10237 10238 10239 10238 10238 10239 10239 10239 10239 10239 10240 10241 10241 10242 10243 10244 10245 10247 10248 10250 10251 10253 10254 10256 10258 10260 10262 10264 10266 10268 10271 10273 10275 10278 10280 10283 10285 10288 10292 10295 10299 10303 10307 10311 10316 10321 10326 10331 10335 10339 10344 10348 10353 10358 10362 10367 10372 10377
10206 10207 10209 10211 10213 10214 10216 10216 10215 10216 10219 10221 10222 10223 10224 10224 10225 10226 10227 10227 10228 10229 10231 10232 10232 10233 10234 10235 10236 10236 10236 10236 10236 10235 10235 10235 10235 10236 10237 10237 10238 10239 10240 10241 10243 10245 10247 10248 10249 10251 10253 10256 10257 10259 10262 10264 10266 10269 10271 10273 10275 10278 10280 10283 10286 10289 10293 10296 10300 10304 10309 10313 10317 10321 10325 10330 10334 10338 10343 10348 10352 10356 10360 10365 10369
10201 10201 10204 10207 10208 10209 10211 10211 10211 10213 10215 10217 10218 10219 10220 10221 10222 10222 10223 10224 10225 10226 10228 10229 10229 10230 10231 10232 10233 10233 10233 10233 10232 10232 10232 10232 10232 10232 10233 10233 10234 10235 10236 10237 10239 10241 10243 10245 10247 10249 10251 10253 10255 10258 10260 10262 10265 10267 10269 10271 10274 10276 10278 10281 10284 10287 10291 10295 10298 10302 10306 10310 10313 10317 10321 10325 10330 10334 10339 10343 10347 10351 10355 10359 10362
10195 10196 10199 10202 10204 10205 10206 10206 10207 10208 10211 10213 10214 10215 10216 10217 10218 10219 10220 10221 10223 10224 10225 10226 10226 10228 10229 10230 10230 10231 10230 10230 10229 10229 10229 10229 10228 10229 10229 10230 10230 10231 10232 10233 10235 10237 10240 10242 10244 10246 10248 10251 10253 10256 10258 10260 10263 10265 10267 10269 10271 10274 10276 10279 10282 10285 10288 10292 10296 10300 10303 10307 10310 10314 10318 10322 10326 10330 10334 10338 10342 10346 10350 10353 10357
10191 10192 10194 10197 10200 10201 10201 10202 10203 10204 10206 10209 10210 10211 10213 10214 10215 10216 10218 10219 10220 10221 10222 10223 10224 10225 10226 10227 10228 10228 10227 10227 10226 10226 10226 10226 10225 10225 10225 10226 10227 10227 10228 10230 10231 10233 10236 10238 10241 10243 10245 10248 10250 10253 10255 10257 10260 10262 10264 10266 10269 10271 10274 10276 10279 10282 10285 10289 10293 10297 10300 10304 10308 10311 10315 10319 10323 10326 10330 10334 10338 10342 10346 10349 10354
10186 10187 10189 10193 10195 10196 10197 10198 10199 10200 10202 10205 10207 10208 10209 10210 10212 10213 10215 10216 10217 10219 10219 10220 10221 10222 10224 10225 10225 10225 10224 10224 10224 10223 10223 10223 10222 10222 10222 10223 10223 10224 10225 10226 10228 10230 10232 10234 10237 10239 10242 10244 10247 10250 10252 10254 10256 10259 10261 10263 10265 10268 10271 10274 10276 10279 10282 10286 10290 10294 10297 10301 10305 10308 10312 10315 10319 10322 10326 10331 10335 10339 10342 10346 10350
10181 10183 10185 10188 10190 10192 10193 10194 10195 10197 10199 10201 10203 10205 10206 10207 10209 10211 10212 10214 10215 10216 10217 10218 10219 10220 10221 10222 10223 10222 10222 10221 10221 10221 10220 10220 10219 10219 10219 10220 10220 10221 10222 10223 10225 10226 10228 10231 10233 10236 10238 10241 10244 10246 10249 10251 10253 10255 10258 10260 10262 10264 10267 10270 10273 10276 10279 10282 10286 10290 10294 10297 10301 10304 10308 10312 10316 10320 10324 10328 10332 10335 10338 10342 10345
10177 10178 10181 10183 10185 10188 10189 10190 10191 10193 10195 10197 10200 10201 10202 10204 10206 10208 10209 10211 10212 10214 10214 10215 10216 10217 10219 10220 10220 10220 10219 10219 10219 10218 10218 10217 10217 10217 10217 10217 10218 10218 10220 10221 10222 10224 10226 10228 10230 10232 10234 10237 10240 10242 10245 10247 10249 10252 10254 10256 10258 10261 10264 10267 10270 10273 10276 10279 10283 10286 10290 10294 10298 10302 10306 10310 10313 10317 10321 10324 10327 10331 10334 10338 10341
10172 10174 10176 10179 10181 10183 10185 10187 10188 10189 10191 10194 10196 10198 10199 10201 10203 10205 10207 10208 10210 10211 10212 10213 10214 10215 10217 10218 10218 10217 10217 10217 10216 10216 10216 10215 10215 10215 10215 10215 10216 10216 10218 10219 10220 10222 10223 10225 10227 10229 10231 10234 10236 10238 10241 10243 10245 10247 10250 10252 10254 10257 10261 10265 10268 10271 10274 10277 10281 10284 10288 10292 10296 10300 10304 10307 10310 10313 10316 10320 10323 10327 10331 10334 10338
10168 10170 10172 10174 10177 10179 10181 10183 10184 10186 10188 10190 10193 10195 10196 10198 10200 10202 10204 10206 10207 10208 10209 10210 10212 10213 10215 10215 10216 10215 10215 10215 10215 10215 10214 10214 10213 10213 10213 10214 10214 10215 10216 10217 10219 10220 10222 10223 10225 10227 10229 10231 10233 10236 10238 10240 10242 10244 10247 10249 10252 10256 10259 10263 10267 10270 10273 10276 10280 10284 10287 10291 10294 10298 10301 10304 10307 10310 10313 10317 10321 10324 10327 10331 10334
10164 10165 10167 10170 10172 10175 10177 10179 10180 10182 10184 10187 10189 10191 10193 10195 10197 10199 10201 10203 10205 10206 10207 10208 10210 10211 10213 10213 10214 10214 10214 10214 10214 10214 10213 10213 10213 10213 10213 10214 10214 10215 10216 10217 10218 10220 10221 10223 10224 10226 10228 10230 10232 10234 10237 10239 10241 10244 10247 10250 10253 10256 10260 10263 10266 10269 10273 10276 10279 10283 10286 10289 10292 10295 10298 10301 10305 10309 10312 10315 10318 10321 10324 10327 10330
10159 10161 10163 10166 10168 10170 10173 10175 10177 10178 10180 10183 10186 10188 10190 10192 10194 10196 10198 10200 10202 10203 10204 10206 10207 10209 10211 10212 10212 10212 10212 10212 10213 10213 10213 10213 10213 10213 10214 10214 10215 10216 10217 10218 10219 10221 10222 10223 10225 10226 10229 10231 10233 10235 10238 10240 10242 10245 10248 10251 10254 10258 10261 10264 10267 10270 10273 10276 10279 10282 10285 10288 10291 10294 10297 10300 10303 10306 10309 10312 10315 10318 10321 10324 10327
10154 10156 10159 10161 10163 10166 10169 10171 10173 10175 10177 10179 10182 10184 10186 10188 10190 10193 10195 10197 10199 10200 10202 10203 10205 10207 10208 10210 10210 10211 10211 10211 10212 10213 10213 10213 10213 10214 10214 10215 10216 10217 10219 10220 10221 10222 10223 10224 10226 10227 10230 10233 10235 10237 10240 10242 10244 10246 10249 10251 10254 10258 10261 10264 10267 10271 10273 10276 10279 10282 10284 10287 10290 10293 10295 10298 10300 10303 10306 10309 10312 10315 10318 10322 10325
10150 10152 10154 10156 10159 10161 10164 10167 10169 10171 10173 10175 10178 10181 10183 10185 10187 10189 10192 10194 10196 10197 10199 10201 10202 10204 10206 10208 10208 10209 10210 10210 10211 10212 10213 10213 10213 10214 10215 10215 10216 10218 10220 10221 10223 10224 10225 10226 10227 10229 10231 10234 10236 10239 10241 10243 10245 10248 10250 10252 10255 10258 10261 10264 10267 10270 10273 10275 10278 10281 10283 10286 10288 10290 10292 10295 10297 10300 10303 10306 10310 10313 10317 10321 10324